Location: Passau
(48.5721°N, 13.4363°E)
Time: 12:58:59
(UTC+01:00)

ISS - Pass Details

Date: 12 January 2018
Orbit: 402 x 407 km, 51.6° (Epoch: 18 January)

Event Time Altitude Azimuth Distance (km) Brightness Sun altitude
Exits shadow 04:51:15 15° 91° (E) 1,207 -0.6 -29.7°
Drops below altitude 10° 04:51:59 - 94° (E) 1,501 0.0 -29.6°
Sets 04:54:00 0° 98° (E) 2,326 1.2 -29.2°
